Terminal Aerodrome Forecast
Issued by NWS

Home | Current Version | Previous Version | Text Only | Print | Product List | Glossary On
Versions: 1 2 3 4 5 6 7 8 9 10 11 12 13 14 15 16 17 18 19 20 21 22 23 24 25 26
000
FTUS41 KOKX 290545
TAFSWF
TAF
KSWF 290545Z 2906/3012 00000KT 6SM BR VCFG FEW250
      TEMPO 2908/2911 4SM BR
     FM291200 VRB03KT P6SM SCT250
     FM291500 24005KT P6SM FEW050 SCT250
     FM300000 23003KT P6SM FEW050 SCT250
     FM300600 24003KT P6SM FEW040 SCT250
      AMD NOT SKED=

USA.gov is the U.S. government's official web portal to all federal, state and local government web resources and services.